Home > Weather > Nainital > Past weeks

Flag for India Weather for the Past 2 Weeks in Nainital, Uttarakhand, India

Now
77 °F

Passing clouds.


Feels Like: 78 °F
Forecast: 47 / 72 °F
Wind: No wind

Location: New Delhi Palam Airport

Current Time: Apr 29, 2016 at 5:53:00 AM

Latest Report: Apr 29, 2016 at 5:00 AM


Visibility: 1 mi

Pressure: 29.71 "Hg (23.75 "Hg at 1955m altitude)

Humidity: 34%

Dew Point: 46 °F

Location of NainitalLocation

Historic Weather in Nainital — Graph

°F

Nainital Temperature Yesterday

Maximum temperature yesterday: 109 °F (at 4:00 PM)
Minimum temperature yesterday: 73 °F (at 5:00 AM)
Average temperature yesterday: 91 °F

High & Low Weather Summary for the Past Weeks

 TemperatureHumidityPressure
High111 °F (Apr 16, 2:30 PM)47% (Apr 21, 6:30 AM)29.83 "Hg (Apr 21, 6:30 AM)
Low72 °F (Apr 14, 6:00 AM)6% (Apr 25, 3:00 PM)29.53 "Hg (Apr 22, 4:30 PM)
Average92 °F20%29.69 "Hg
* Reported Apr 14 4:30 AM — Apr 29 4:30 AM, Nainital, Weather by CustomWeather, © 2016

Note: Actual official high and low records may vary slightly from our data, if they occured in-between our weather recording intervals... More about our weather records

Advertising

Nainital Weather History for the Previous 24 Hours

Scroll right to see more
 ConditionsComfort  
Time TempWeatherWind HumidityBarometerVisibility
4:30 AM
Fri, Apr 29
77 °FPassing clouds.5 mph36%29.71 "Hg1 mi
4:00 AM77 °FHaze.5 mph36%29.71 "Hg1 mi
3:30 AM77 °FHaze.5 mph36%29.71 "Hg1 mi
3:00 AM81 °FHaze.No wind26%29.71 "Hg1 mi
2:30 AM81 °FHaze.No wind26%29.71 "Hg1 mi
2:00 AM82 °FHaze.No wind21%29.71 "Hg1 mi
1:30 AM82 °FHaze.No wind25%29.71 "Hg1 mi
1:00 AM82 °FHaze.No wind26%29.71 "Hg1 mi
12:30 AM84 °FHaze.No wind25%29.71 "Hg1 mi
12:00 AM86 °FHaze.No wind22%29.74 "Hg1 mi
11:30 PM
Thu, Apr 28
86 °FHaze.No wind20%29.74 "Hg1 mi
11:00 PM88 °FHaze.No wind17%29.74 "Hg1 mi
10:30 PM88 °FHaze.No wind17%29.74 "Hg1 mi
10:00 PM90 °FHaze.No wind15%29.71 "Hg1 mi
9:30 PM93 °FHaze.No wind13%29.71 "Hg1 mi
9:00 PM95 °FHaze.2 mph11%29.71 "Hg1 mi
8:30 PM97 °FHaze.3 mph11%29.71 "Hg2 mi
8:00 PM97 °FHaze.6 mph11%29.71 "Hg2 mi
7:30 PM99 °FHaze.6 mph10%29.71 "Hg2 mi
6:30 PM102 °FHaze.8 mph9%29.68 "Hg2 mi
6:00 PM104 °FHaze.13 mph9%29.68 "Hg3 mi
5:30 PM106 °FHaze.13 mph8%29.68 "Hg3 mi
5:00 PM106 °FHaze.10 mph8%29.68 "Hg3 mi
4:30 PM109 °FScattered clouds.9 mph7%29.68 "Hg2 mi
4:00 PM109 °FScattered clouds.9 mph7%29.68 "Hg2 mi
3:30 PM108 °FScattered clouds.9 mph8%29.68 "Hg2 mi
3:00 PM108 °FScattered clouds.9 mph8%29.68 "Hg2 mi
2:30 PM108 °FLow level haze.9 mph8%29.71 "Hg2 mi
2:00 PM106 °FHaze.9 mph8%29.71 "Hg2 mi
1:30 PM108 °FHaze.9 mph7%29.74 "Hg2 mi
12:30 PM104 °FHaze.12 mph9%29.77 "Hg2 mi
11:00 AM99 °FHaze.9 mph13%29.77 "Hg1 mi
10:30 AM95 °FHaze.8 mph15%29.77 "Hg1 mi
9:30 AM88 °FScattered clouds.12 mph19%29.77 "Hg1 mi
9:00 AM88 °FScattered clouds.9 mph19%29.77 "Hg1 mi
8:30 AM86 °FScattered clouds.12 mph22%29.77 "Hg1 mi
7:00 AM77 °FHaze.No wind30%29.71 "Hg1 mi
6:30 AM73 °FHaze.No wind33%29.71 "Hg1 mi
6:00 AM73 °FHaze.No wind33%29.71 "Hg1 mi
5:30 AM73 °FHaze.No wind36%29.71 "Hg1 mi
5:00 AM73 °FHaze.No wind36%29.71 "Hg1 mi
Weather by CustomWeather, © 2016

See weather overviewHow to use our weather pages